Regional Weather Roundup
Issued by NWS Cleveland, OH

Home | Current Version | Previous Version | Text Only | Print | Product List | Glossary Off
Versions: 1 2 3 4 5 6 7 8 9 10 11 12 13 14 15 16 17 18 19 20 21 22 23 24 25 26 27 28 29 30 31 32 33 34 35 36 37 38 39 40 41 42 43 44 45 46 47 48 49 50

000
ASUS41 KCLE 170200
RWRCLE
OHIO REGIONAL WEATHER ROUNDUP
NATIONAL WEATHER SERVICE WILMINGTON, OH
1000 PM EDT TUE SEP 16 2014

NOTE: "FAIR" INDICATES FEW OR NO CLOUDS BELOW 12,000 FEET WITH NO
SIGNIFICANT WEATHER AND/OR OBSTRUCTIONS TO VISIBILITY.

OHZ001>008-015>018-024>027-034-035-043-044-170300-
   NORTHWEST OHIO

CITY           SKY/WX    TMP DP  RH WIND       PRES   REMARKS
DEFIANCE       CLEAR     50  47  89 CALM      30.10R
FINDLAY        CLEAR     52  47  83 S3        30.09S
TOLEDO EXPRESS CLEAR     51  48  89 CALM      30.08S
TOLEDO METCALF CLEAR     55  45  68 CALM      30.09S
LIMA           CLEAR     53  47  79 SW3       30.11R
$$

OHZ009>014-019>023-028>033-038-089-170300-
   NORTHEAST OHIO

CITY           SKY/WX    TMP DP  RH WIND       PRES   REMARKS
CLE-HOPKINS    CLEAR     52  48  86 CALM      30.11S
CLE-LAKEFRONT  CLEAR     60  46  59 NW8       30.08S
CUY CO. ARPT   PTCLDY    52  50  93 CALM      30.10R
LORAIN-ELYRIA  CLEAR     52  47  83 SW3       30.10S
ASHTABULA      CLEAR     48  46  93 CALM      30.10S
AKRON-CANTON   PTCLDY    54  48  80 N5        30.10R
WOOSTER        NOT AVBL
MANSFIELD      CLEAR     50  48  93 CALM      30.11R
YOUNGSTOWN     PTCLDY    53  48  83 CALM      30.09S
$$

OHZ042-051>053-060>062-070>072-077>081-170300-
  SOUTHWEST OHIO

CITY           SKY/WX    TMP DP  RH WIND       PRES   REMARKS
CINC-COVINGTON CLOUDY    59  51  75 N6        30.11S
CINC-LUNKEN    CLOUDY    59  53  80 E3        30.12S
HAMILTON       CLOUDY    58  54  86 N3        30.12S
DAYTON         NOT AVBL
WRIGHT-PAT AFB CLEAR     51  47  87 CALM      30.11S
DAYTON GENERAL CLOUDY    58  49  72 CALM      30.11S
WILMINGTON     CLOUDY    56  48  74 CALM      30.11S
$$

OHZ036-037-039>041-045>050-054>059-063>069-073>076-082>088-170300-
  CENTRAL AND SOUTHEAST OHIO

CITY           SKY/WX    TMP DP  RH WIND       PRES   REMARKS
COLUMBUS       CLEAR     58  49  72 CALM      30.09S
OSU AIRPORT    CLEAR     51  47  86 W5        30.10S
BOLTON FIELD   NOT AVBL
RICKENBACK AFB NOT AVBL
NEWARK         FOG       48  47  96 CALM      30.10S VSB 1/2
MARION         CLEAR     51  47  86 W3        30.10S
LANCASTER      CLEAR     50  47  89 CALM      30.10S
ZANESVILLE     CLEAR     55  49  80 CALM      30.09S
NEW PHILLY     CLEAR     53  52  96 CALM      30.10R
$$



USA.gov is the U.S. government's official web portal to all federal, state and local government web resources and services.